Location: Worth Mountain WMA
(34.9569°N, 81.4819°W)
Time: 12:29:02
(UTC-04:00)

Daily predictions for brighter satellites

Satellite Brightness Start Highest point End
(mag) Time Altitude Azimuth Time Altitude Azimuth Time Altitude Azimuth
NOSS 3-4 (C) 3.9 20:07:40 10° NNW 20:14:45 70° ENE 20:22:14 10° SE
Cosmos 1777 Rocket 4.1 20:12:51 10° NNW 20:18:08 85° WSW 20:23:24 10° SSE
SJ-6B 3.5 20:17:31 10° S 20:21:10 55° W 20:24:51 10° NNW
Hubble Space Telescope 3.1 20:18:51 10° SW 20:21:17 15° SSW 20:23:43 10° SSE
FengYun 1-2 T 4.5 20:17:00 10° SSE 20:22:26 52° ENE 20:27:51 10° N
Cosmos 2123 Rocket 4.2 20:18:57 10° N 20:24:57 52° E 20:30:57 10° SSE
BREEZE-M DEB (TANK) 4.4 20:12:36 10° NW 20:25:06 52° SW 20:28:50 10° SSE
Resurs 1-3 3.7 20:20:50 10° SSE 20:25:07 57° ENE 20:29:26 10° N
Cosmos 2297 Rocket 2.6 20:24:33 10° N 20:29:57 44° ENE 20:35:18 10° SE
CZ-4B DEB 3.3 20:27:35 10° SE 20:30:40 39° ENE 20:33:46 10° N
Okean 2 3.4 20:27:19 10° N 20:31:30 83° E 20:35:37 10° S
Cosmos 2082 3.8 20:26:13 10° NNW 20:31:47 60° ENE 20:37:19 10° SSE
Helios 1B rocket 3.2 20:28:54 10° N 20:32:58 59° WNW 20:36:59 10° SSW
SL-24 R/B - RUBIN 2 4.3 20:27:50 10° SSW 20:33:30 83° ESE 20:39:56 10° NNE
Meteor 1-5 Rocket 4.3 20:28:33 10° S 20:33:52 80° W 20:39:22 10° N
Meteor 1-12 Rocket 4.4 20:28:28 10° S 20:34:00 53° E 20:39:40 10° NNE
Spot 2 Rocket 3.7 20:32:36 10° S 20:37:41 77° WSW 20:42:47 10° NNW
Iridium 4 Rocket 4.0 20:38:04 10° NNE 20:42:21 31° E 20:46:19 10° SE
Cosmos 1934 Rocket 4.3 20:37:03 10° SSW 20:43:10 74° W 20:49:25 10° N
Cosmos 1346 Rocket 2.9 20:41:17 10° N 20:45:16 79° W 20:49:15 10° S
Lacrosse 5 3.0 20:46:07 10° NNW 20:50:33 30° NE 20:53:46 16° E
Resurs 01 Rocket 2.6 20:47:34 10° S 20:51:51 50° W 20:56:11 10° NNW
Cosmos 1153 Rocket 4.5 20:47:02 10° S 20:53:06 61° E 20:59:09 10° NNE
Cosmos 2298 Rocket 4.4 20:50:30 10° N 20:55:36 45° ENE 20:59:37 16° SE
Cosmos 1743 3.7 20:59:22 21° ESE 21:00:40 26° E 21:03:58 10° NNE
Cosmos 1697 Rocket 2.6 20:55:19 10° SSW 21:00:57 77° ESE 21:06:36 10° NNE
Cosmos 1066 Rocket 4.5 21:03:34 10° N 21:09:07 50° ENE 21:13:22 17° SSE
Cosmos 1802 Rocket 4.5 21:04:23 10° SSE 21:10:16 40° E 21:16:11 10° NNE
ERS-1 Rocket 3.7 21:08:34 24° ESE 21:10:46 34° ENE 21:15:17 10° N
Cosmos 1461 4.3 21:08:06 10° NW 21:11:42 33° WSW 21:15:13 10° S
SL-16 R/B 4.0 21:16:08 13° ENE 21:16:08 13° ENE 21:17:06 10° ENE
Cosmos 2016 Rocket 4.4 21:14:02 19° SE 21:17:51 37° E 21:23:27 10° NNE
RESURS DK-1 2.9 21:13:59 10° N 21:17:54 40° ENE 21:18:51 34° E
CZ-4 DEB 3.6 21:19:01 33° ENE 21:19:01 33° ENE 21:21:34 10° N
Cosmos 2150 Rocket 3.9 21:15:48 10° NNW 21:20:57 68° ENE 21:23:51 26° SSE
OTV 4 2.0 21:20:12 10° W 21:22:41 24° SSW 21:22:59 23° SSW
Cosmos 1763 Rocket 3.5 21:17:53 10° S 21:22:49 51° ESE 21:27:44 10° NNE
USA 186 2.2 21:22:39 22° S 21:24:23 53° W 21:27:14 10° NNW
ALOS 3.1 21:20:03 10° S 21:24:34 51° W 21:29:08 10° NNW
Cosmos 1980 Rocket 2.1 21:19:18 10° SSW 21:24:55 73° ESE 21:30:37 10° NNE
OAO 2 Rocket 3.2 21:21:05 10° W 21:26:05 89° SSW 21:28:13 36° E
Cosmos 1825 Rocket 4.0 21:22:26 10° N 21:26:33 39° E 21:26:56 38° E
H-2A R/B 3.6 21:24:07 10° S 21:27:53 49° W 21:31:43 10° NNW
Cosmos 2173 Rocket 3.9 21:23:25 10° S 21:29:44 69° E 21:36:01 10° NNE
Cosmos 1898 Rocket 3.5 21:28:51 10° NNW 21:34:10 84° WSW 21:37:06 27° SSE
Cosmos 2098 Rocket 4.5 21:31:59 30° SE 21:34:21 40° E 21:39:48 10° NNE
H-2A R/B 3.2 21:37:53 27° NE 21:37:53 27° NE 21:40:41 10° N
Cosmos 1953 Rocket 4.2 21:34:01 10° N 21:37:48 37° ENE 21:37:48 37° ENE
Cosmos 2084 3.8 21:37:10 10° NW 21:41:15 60° WSW 21:42:28 42° S
DELTA 2 R/B (1) 3.6 21:36:41 10° WNW 21:42:13 70° SSW 21:43:49 46° SE
Cosmos 2100 Rocket 4.1 21:40:24 10° S 21:46:42 79° W 21:52:57 10° N
Cosmos 841 Rocket 3.3 21:41:54 10° SSW 21:47:08 79° ESE 21:52:21 10° NNE
YAOGAN 11 4.1 21:48:04 48° S 21:49:18 82° W 21:53:46 10° NNW
Tiangong 1 2.7 21:48:09 10° NW 21:50:13 32° NNW 21:50:13 32° NNW
CZ-3C R/B 3.8 21:12:33 10° W 21:51:07 37° SSW 21:55:35 25° SSE
Cosmos 2263 Rocket 4.1 21:50:16 10° NNE 21:52:51 14° NE 21:52:51 14° NE
Lacrosse 5 rocket 3.3 21:51:01 10° WNW 21:53:28 17° WSW 21:54:21 16° SW
Cosmos 1758 Rocket 4.2 21:52:24 10° N 21:55:33 41° NE 21:55:33 41° NE
Cosmos 2227 Rocket 4.5 21:54:40 10° NW 21:58:40 20° W 22:02:41 10° SW
Cosmos 2322 Rocket 2.8 22:00:47 38° ENE 22:00:47 38° ENE 22:04:31 10° NNE
ASTEX 1 3.7 21:54:53 10° NNE 21:58:58 50° NE 21:58:58 50° NE
Cosmos 2061 Rocket 4.3 21:53:48 10° SSW 22:00:04 68° W 22:06:19 10° N
Tsikada Rocket 4.3 21:56:14 10° N 22:02:22 46° E 22:02:25 46° E
Cosmos 1340 3.5 22:01:08 10° N 22:03:55 46° NNW 22:03:55 46° NNW
deb Chang Zheng 4 3.8 22:01:54 10° NNE 22:05:36 62° NNE 22:05:36 62° NNE
Meteor 1-15 Rocket 4.2 22:08:01 64° E 22:08:01 64° E 22:13:46 10° NNE
Meteor 2-9 Rocket 4.0 22:12:18 80° E 22:12:18 80° E 22:17:44 10° N
MetOp-A 4.3 22:12:56 58° NE 22:12:56 58° NE 22:17:41 10° N
Cosmos 2297 Rocket 4.3 22:09:26 10° NW 22:13:36 21° W 22:17:46 10° SSW
Cosmos 1725 Rocket 3.8 22:18:11 71° SSE 22:18:51 82° E 22:25:07 10° N
Meteor 1-21 4.5 22:15:20 10° NNW 22:21:05 67° W 22:22:11 55° SSW
Cosmos 2058 Rocket 3.9 22:22:25 47° NNW 22:22:25 47° NNW 22:25:44 10° N
Cosmos 1939 Rocket 4.2 22:24:09 39° W 22:24:09 39° W 22:27:41 10° NNW
Cosmos 2227 4.2 22:19:09 10° NNW 22:24:54 80° WSW 22:24:54 80° WSW
Milstar 3 Cent rocket 4.1 22:05:51 10° W 22:26:47 59° SSW 22:30:15 46° SSE
Envisat 3.6 22:26:38 50° WSW 22:27:02 51° W 22:31:59 10° NNW
Lacrosse 5 2.9 22:28:52 10° NW 22:32:58 38° WSW 22:32:58 38° WSW
SPOT 5 3.6 22:38:12 50° NW 22:38:12 50° NW 22:41:54 10° NNW
Cosmos 2233 Rocket 4.5 22:43:02 51° NNE 22:43:02 51° NNE 22:47:36 10° N
H-2A R/B 4.0 22:56:30 20° NNE 22:56:30 20° NNE 22:58:04 10° N
ARGOS 4.2 22:57:44 40° NNW 22:57:44 40° NNW 23:01:07 10° NNW
Terra 4.2 22:59:15 15° NNE 22:59:15 15° NNE 23:00:11 10° N
SL-16 R/B 3.1 22:57:52 46° NW 22:57:52 46° NW 23:02:30 10° N
USA 215 4.3 23:21:34 36° NNE 23:21:34 36° NNE 23:26:38 10° NNW
BREEZE-M DEB (TANK) 4.5 23:21:13 10° NW 23:31:51 49° NNW 23:31:51 49° NNW
Cosmos 2263 Rocket 4.0 23:32:12 10° NNW 23:34:33 26° NNW 23:34:33 26° NNW
Cosmos 2322 Rocket 4.4 23:42:28 19° WNW 23:43:24 20° WNW 23:47:25 10° NNW
